Regional Weather Roundup
Issued by NWS

Home | Current Version | Previous Version | Text Only | Print | Product List | Glossary Off
Versions: 1 2 3 4 5 6 7 8 9 10 11 12 13 14 15 16 17 18 19 20 21 22 23 24 25 26 27 28 29 30 31 32 33 34 35 36 37 38 39 40 41 42 43 44 45 46 47 48 49 50

000
ASUS45 KSLC 030510
RWRUT

UTAH REGIONAL WEATHER ROUNDUP
NATIONAL WEATHER SERVICE SALT LAKE CITY UT
1100 PM MDT SUN AUG 02 2015

UTZ001>011-023>025-030600-

NORTHERN UTAH

CITY           SKY/WX    TMP DP  RH WIND       PRES   REMARKS
BRIGHAM CITY   CLOUDY    79  44  28 CALM      29.98S
HILL AFB       CLOUDY    75  50  41 S9        30.01R
LOGAN          CLEAR     72  47  40 NW8       29.97R
OGDEN          CLOUDY    77  49  37 S9        29.98R
PROVO AIRPORT  CLOUDY    70  52  52 E6        30.06R
SALT LAKE CITY CLOUDY    77  49  37 SE13      29.97S
VERNAL         LGT RAIN  68  57  68 S12       30.18R
WENDOVER       CLOUDY    82  43  24 W7        29.94S
HEBER CITY     CLOUDY    72  43  35 S3        30.10R
WEST JORDAN    PTCLDY    75  46  35 SE10      30.01S

$$

UTZ012>022-026-027-030600-

SOUTHERN/CENTRAL UTAH

CITY           SKY/WX    TMP DP  RH WIND       PRES   REMARKS
BLANDING       CLOUDY    64  62  94 E5        30.23S
BRYCE CANYON   PTCLDY    51  50  96 W7        30.27
CEDAR CITY     CLEAR     63  47  55 NE3       30.11R
DELTA          CLOUDY    68  55  64 NE14G21   30.10R
HANKSVILLE     MOCLDY    64  63  94 CALM      30.07S
MILFORD        CLOUDY    71  50  47 NE5       30.06R
MOAB/CYNLANDS  CLOUDY    64  62  93 CALM      30.07R
PRICE          CLOUDY    63  57  81 NE5       30.14S
ST GEORGE      CLOUDY    88  45  22 W6        29.90R
KANAB          CLEAR     66  55  68 CALM      30.15S

$$

REGIONAL REPORTS     COLORADO/ARIZONA

CITY           SKY/WX    TMP DP  RH WIND       PRES   REMARKS
CRAIG, CO      CLOUDY    62  32  32 S10       30.18R
GRAND JUNCTION CLOUDY    66  56  70 E15       30.10F
RIFLE          LGT RAIN  62  59  90 SE5       30.20F
MONTROSE       CLOUDY    63  59  87 CALM      30.20R
CORTEZ         MOCLDY    65  60  84 SW7       30.19R
PAGE, AZ       PTCLDY    73  56  54 W3        30.05R
GRAND CANYON   CLEAR     55  51  86 E3        30.21R
KINGMAN        PTCLDY    78  45  30 CALM      29.95R
FLAGSTAFF      CLEAR     56  53  90 CALM      30.25R

$$

REGIONAL REPORTS    NEVADA/IDAHO/WYOMING

CITY           SKY/WX    TMP DP  RH WIND       PRES   REMARKS
LAS VEGAS, NV  PTCLDY    95  49  20 E6        29.78R HX  92
ELY            CLOUDY    65  42  43 SW3       30.16R
ELKO           CLOUDY    69  48  47 VRB3      30.06R
POCATELLO, ID  CLEAR     69  40  34 NW3       29.93R
BURLEY         MOCLDY    70  50  49 S5        29.88S
EVANSTON, WY   MOCLDY    66  42  41 SW12      30.18R
ROCK SPRINGS   CLOUDY    71  43  36 SE33G43   30.15R
KEMMERER       CLOUDY    68  37  32 SE6       30.17S

$$



USA.gov is the U.S. government's official web portal to all federal, state and local government web resources and services.